Location: Unspecified
(47.4992°N, 121.7766°W)
Time: 16:08:08
(UTC-07:00)

ISS - Pass Details

Date: 29 April 2024
Orbit: 410 x 414 km, 51.6° (Epoch: 18 May)

Event Time Altitude Azimuth Distance (km) Brightness Sun altitude
Exits shadow 04:54:53 - 276° (W) 1,629 -1.2 -9.4°
Reaches altitude 10° 04:55:16 10° 278° (W) 1,479 -1.4 -9.3°
Maximum altitude 04:58:27 42° 351° (N) 597 -2.8 -8.9°
Drops below altitude 10° 05:01:38 10° 64° (ENE) 1,479 0.7 -8.4°
Sets 05:03:47 0° 72° (ENE) 2,341 1.9 -8.1°
